contact:dominique.lefevre@mio.osupytheas.fr, maurice.libes@osupytheas.fr, didier.mallarino@osupytheas.fr
Project:EMSO http://www.emso-fr.org/EMSO-France
Depth: 2436.0 m
Title:EMSO Ligure Ouest : Data MII capteur AQUADOPP
Date,Latitude,Longitude,X_East,Y_North,Z_Up,Amplitude_X,Amplitude_Y,Amplitude_Z,Batterie,SoundSpeed,Heading,Pitch,Roll,Pressure,TIS,Speed,Direction
, degrees North, degrees East, m.s-1, m.s-1,m.s-1, 1, 1, 1, Volt, m.s-1, degree, degree, degree, dbar, degree_C, m.s-1, degree
2022-09-05T00:04:03,42.805,6.029,0.014,-0.013,-0.02,101.0,101.0,100.0,13.4,1505.2,323.0,-0.8,1.8,2471.047,13.28,0.019,132.9
2022-09-05T00:07:03,42.805,6.029,-0.025,-0.005,-0.014,101.0,101.0,100.0,13.4,1505.2,329.6,-0.8,1.8,2471.059,13.28,0.025,258.7
2022-09-05T00:10:03,42.805,6.029,-0.017,-0.01,-0.062,101.0,101.0,100.0,13.4,1505.2,328.4,-0.8,1.8,2471.052,13.29,0.019,239.5
2022-09-05T00:13:03,42.805,6.029,0.002,-0.007,-0.02,101.0,100.0,101.0,13.4,1505.2,328.6,-0.7,1.8,2471.027,13.29,0.007,164.1
2022-09-05T00:16:03,42.805,6.029,-0.006,0.004,-0.024,100.0,102.0,101.0,13.4,1505.2,319.2,-0.8,1.8,2471.045,13.29,0.007,303.7
2022-09-05T00:19:03,42.805,6.029,-0.003,0.006,-0.015,102.0,101.0,100.0,13.3,1505.2,320.1,-0.8,1.8,2471.075,13.29,0.006,333.4
2022-09-05T00:22:03,42.805,6.029,-0.022,0.01,-0.02,102.0,102.0,100.0,13.4,1505.2,324.6,-0.8,1.8,2471.042,13.29,0.024,294.4
2022-09-05T00:25:03,42.805,6.029,0.02,0.005,-0.013,101.0,103.0,100.0,13.3,1505.2,328.7,-0.8,1.8,2471.085,13.29,0.02,76.0
2022-09-05T00:28:03,42.805,6.029,0.007,-0.007,-0.001,102.0,102.0,100.0,13.3,1505.2,328.3,-0.8,1.8,2471.058,13.29,0.009,135.0
2022-09-05T00:31:03,42.805,6.029,-0.009,0.0,-0.015,102.0,101.0,100.0,13.4,1505.2,333.4,-0.8,1.8,2471.009,13.29,0.009,270.0
2022-09-05T00:34:03,42.805,6.029,0.0,-0.006,-0.046,102.0,104.0,99.0,13.4,1505.2,334.5,-0.8,1.8,2471.02,13.29,0.006,180.0
2022-09-05T00:37:03,42.805,6.029,0.012,-0.006,-0.014,101.0,102.0,100.0,13.3,1505.2,329.3,-0.8,1.8,2470.995,13.29,0.013,116.6
2022-09-05T00:40:03,42.805,6.029,-0.002,0.008,-0.027,102.0,101.0,101.0,13.4,1505.2,330.4,-0.8,1.8,2471.005,13.29,0.008,346.0
2022-09-05T00:43:03,42.805,6.029,0.008,-0.011,-0.04,101.0,101.0,101.0,13.4,1505.2,325.9,-0.7,1.8,2470.979,13.29,0.013,144.0
2022-09-05T00:46:03,42.805,6.029,0.013,0.003,-0.029,101.0,103.0,102.0,13.3,1505.2,330.3,-0.8,1.8,2471.027,13.29,0.013,77.0
2022-09-05T00:49:03,42.805,6.029,0.006,-0.007,-0.024,102.0,101.0,100.0,13.4,1505.2,325.5,-0.8,1.8,2471.044,13.29,0.009,139.4
2022-09-05T00:52:03,42.805,6.029,0.009,-0.013,-0.047,102.0,102.0,100.0,13.4,1505.2,324.9,-0.8,1.8,2471.022,13.29,0.015,145.3
2022-09-05T00:55:03,42.805,6.029,0.0,0.008,-0.05,102.0,103.0,100.0,13.4,1505.2,334.8,-0.8,1.8,2470.994,13.29,0.008,0.0
2022-09-05T00:58:03,42.805,6.029,0.022,-0.018,-0.032,101.0,102.0,101.0,13.4,1505.2,329.6,-0.7,1.8,2470.986,13.29,0.028,129.3
2022-09-05T01:04:03,42.805,6.029,-0.009,-0.018,-0.027,102.0,103.0,102.0,13.3,1505.2,328.2,-0.8,1.8,2471.067,13.28,0.02,206.6
2022-09-05T01:07:04,42.805,6.029,-0.004,-0.015,0.012,102.0,102.0,101.0,13.4,1505.2,319.2,-0.7,1.8,2471.02,13.28,0.015,194.9
2022-09-05T01:10:03,42.805,6.029,0.017,-0.001,-0.024,104.0,101.0,100.0,13.4,1505.2,332.3,-0.8,1.8,2471.066,13.28,0.017,93.4
2022-09-05T01:13:03,42.805,6.029,0.001,-0.014,-0.04,101.0,102.0,100.0,13.4,1505.2,324.9,-0.7,1.8,2471.079,13.29,0.014,175.9
2022-09-05T01:16:03,42.805,6.029,0.006,-0.005,-0.01,101.0,102.0,100.0,13.4,1505.2,327.4,-0.8,1.8,2471.028,13.29,0.007,129.8
2022-09-05T01:19:03,42.805,6.029,0.042,-0.013,-0.02,100.0,102.0,101.0,13.4,1505.2,319.7,-0.7,1.8,2471.018,13.29,0.043,107.2
2022-09-05T01:22:03,42.805,6.029,0.029,-0.015,-0.038,102.0,102.0,100.0,13.3,1505.2,328.6,-0.7,1.8,2471.061,13.29,0.032,117.4
2022-09-05T01:25:03,42.805,6.029,0.029,-0.009,0.01,104.0,102.0,100.0,13.4,1505.2,325.4,-0.7,1.8,2471.018,13.29,0.03,107.2
2022-09-05T01:28:03,42.805,6.029,0.016,-0.013,-0.029,101.0,101.0,100.0,13.3,1505.2,324.6,-0.8,1.8,2471.033,13.29,0.02,129.1
2022-09-05T01:31:03,42.805,6.029,0.035,-0.018,-0.02,101.0,101.0,100.0,13.4,1505.2,328.5,-0.8,1.8,2471.04,13.29,0.039,117.2
2022-09-05T01:34:03,42.805,6.029,0.026,0.004,-0.015,101.0,101.0,101.0,13.4,1505.2,330.4,-0.8,1.8,2471.031,13.29,0.026,81.3
2022-09-05T01:37:03,42.805,6.029,0.014,-0.011,0.001,101.0,101.0,101.0,13.4,1505.2,323.1,-0.8,1.8,2471.031,13.29,0.017,128.2
2022-09-05T01:40:03,42.805,6.029,0.027,-0.001,-0.015,102.0,102.0,100.0,13.4,1505.2,319.9,-0.8,1.8,2471.05,13.29,0.027,92.1
2022-09-05T01:43:03,42.805,6.029,-0.002,-0.01,-0.015,100.0,101.0,101.0,13.4,1505.2,323.0,-0.8,1.8,2471.046,13.29,0.01,191.3
2022-09-05T01:46:03,42.805,6.029,0.01,-0.016,-0.026,101.0,101.0,101.0,13.4,1505.2,332.2,-0.8,1.8,2470.979,13.29,0.018,148.0
2022-09-05T01:49:03,42.805,6.029,0.015,-0.002,-0.017,102.0,100.0,100.0,13.3,1505.2,325.8,-0.8,1.8,2471.047,13.29,0.015,97.6
2022-09-05T01:52:03,42.805,6.029,0.002,-0.005,-0.038,100.0,102.0,102.0,13.4,1505.2,319.5,-0.8,1.8,2471.017,13.29,0.005,158.2
2022-09-05T01:55:03,42.805,6.029,0.028,-0.001,-0.016,102.0,102.0,101.0,13.3,1505.2,319.9,-0.8,1.8,2470.992,13.29,0.028,92.0
2022-09-05T01:58:03,42.805,6.029,0.027,-0.016,-0.048,102.0,101.0,100.0,13.3,1505.2,320.6,-0.8,1.8,2470.958,13.29,0.031,120.7
2022-09-05T02:04:03,42.805,6.029,-0.008,-0.015,-0.06,102.0,101.0,100.0,13.4,1505.2,332.3,-0.8,1.8,2471.065,13.28,0.017,208.1
2022-09-05T02:07:03,42.805,6.029,0.006,0.0,-0.024,102.0,101.0,101.0,13.4,1505.2,333.7,-0.7,1.8,2471.022,13.28,0.006,90.0
2022-09-05T02:10:03,42.805,6.029,0.008,0.001,-0.021,102.0,102.0,100.0,13.4,1505.2,329.1,-0.8,1.9,2471.054,13.28,0.008,82.9
2022-09-05T02:13:03,42.805,6.029,0.016,-0.017,-0.027,102.0,101.0,99.0,13.3,1505.2,320.8,-0.7,1.8,2471.009,13.28,0.023,136.7
2022-09-05T02:16:03,42.805,6.029,-0.006,-0.008,-0.046,102.0,100.0,101.0,13.4,1505.2,330.1,-0.7,1.8,2470.986,13.29,0.01,216.9
2022-09-05T02:19:03,42.805,6.029,-0.002,-0.009,-0.004,101.0,102.0,100.0,13.4,1505.2,332.2,-0.8,1.8,2471.058,13.29,0.009,192.5
2022-09-05T02:22:03,42.805,6.029,0.024,-0.014,-0.058,101.0,101.0,101.0,13.4,1505.2,318.8,-0.8,1.8,2471.024,13.29,0.027,120.3
2022-09-05T02:25:03,42.805,6.029,0.011,-0.019,-0.052,102.0,101.0,101.0,13.4,1505.2,322.3,-0.8,1.8,2471.033,13.29,0.021,149.9
2022-09-05T02:28:03,42.805,6.029,0.038,-0.011,-0.009,101.0,100.0,101.0,13.4,1505.2,326.3,-0.7,1.8,2471.026,13.29,0.039,106.1
2022-09-05T02:31:03,42.805,6.029,0.006,-0.011,-0.032,100.0,102.0,101.0,13.4,1505.2,322.5,-0.7,1.8,2471.016,13.29,0.012,151.4
2022-09-05T02:34:03,42.805,6.029,0.022,0.005,-0.012,101.0,100.0,101.0,13.4,1505.2,325.4,-0.7,1.8,2471.0,13.29,0.022,77.2
2022-09-05T02:37:03,42.805,6.029,0.021,-0.026,-0.049,102.0,101.0,101.0,13.4,1505.2,321.7,-0.8,1.8,2471.011,13.29,0.033,141.1
2022-09-05T02:40:03,42.805,6.029,-0.002,-0.002,-0.036,101.0,101.0,100.0,13.3,1505.2,321.7,-0.7,1.8,2471.03,13.29,0.002,225.0
2022-09-05T02:43:02,42.805,6.029,0.028,-0.004,-0.008,101.0,101.0,100.0,13.4,1505.2,319.9,-0.8,1.8,2471.0,13.29,0.028,98.1
2022-09-05T02:46:02,42.805,6.029,0.017,-0.008,-0.029,100.0,101.0,100.0,13.4,1505.2,321.3,-0.7,1.8,2471.023,13.29,0.018,115.2
2022-09-05T02:49:03,42.805,6.029,0.015,-0.003,-0.018,102.0,101.0,100.0,13.4,1505.2,329.2,-0.7,1.8,2471.001,13.29,0.015,101.3
2022-09-05T02:52:02,42.805,6.029,-0.004,-0.009,-0.02,102.0,99.0,100.0,13.3,1505.2,319.8,-0.8,1.8,2471.004,13.29,0.009,204.0
2022-09-05T02:55:03,42.805,6.029,-0.003,-0.005,-0.051,103.0,99.0,101.0,13.4,1505.2,331.2,-0.7,1.8,2470.954,13.29,0.005,211.0
2022-09-05T02:58:03,42.805,6.029,-0.01,0.004,0.004,100.0,103.0,100.0,13.4,1505.2,330.1,-0.8,1.8,2470.972,13.29,0.01,291.8
2022-09-05T03:04:02,42.805,6.029,0.0,0.004,-0.018,102.0,102.0,100.0,13.4,1505.2,322.8,-0.8,1.8,2471.028,13.28,0.004,0.0
2022-09-05T03:07:02,42.805,6.029,0.028,-0.013,-0.021,102.0,101.0,100.0,13.4,1505.2,324.6,-0.8,1.8,2470.992,13.28,0.03,114.9
2022-09-05T03:10:02,42.805,6.029,0.023,-0.001,0.006,103.0,100.0,100.0,13.3,1505.2,332.3,-0.8,1.8,2471.034,13.28,0.023,92.5
2022-09-05T03:13:02,42.805,6.029,0.018,-0.023,-0.035,101.0,102.0,100.0,13.3,1505.2,330.1,-0.8,1.8,2471.02,13.29,0.029,142.0
2022-09-05T03:16:02,42.805,6.029,0.015,0.012,0.038,101.0,102.0,100.0,13.4,1505.2,323.7,-0.8,1.8,2471.038,13.29,0.019,51.3
2022-09-05T03:19:02,42.805,6.029,0.009,-0.006,-0.034,103.0,103.0,102.0,13.3,1505.2,332.3,-0.7,1.8,2471.071,13.29,0.01,123.7
2022-09-05T03:22:02,42.805,6.029,0.008,-0.007,-0.017,101.0,102.0,101.0,13.3,1505.2,326.3,-0.8,1.8,2471.029,13.29,0.01,131.2
2022-09-05T03:25:02,42.805,6.029,0.009,-0.012,-0.059,101.0,103.0,101.0,13.3,1505.2,319.6,-0.7,1.8,2471.023,13.29,0.015,143.1
2022-09-05T03:28:02,42.805,6.029,0.027,-0.013,-0.049,102.0,101.0,100.0,13.3,1505.2,324.1,-0.8,1.8,2471.013,13.29,0.029,115.7
2022-09-05T03:31:02,42.805,6.029,0.01,0.009,0.0,101.0,102.0,100.0,13.4,1505.2,323.7,-0.8,1.8,2470.957,13.29,0.013,48.0
2022-09-05T03:34:03,42.805,6.029,0.047,-0.015,0.009,102.0,101.0,101.0,13.3,1505.2,323.5,-0.7,1.8,2471.009,13.29,0.049,107.7
2022-09-05T03:37:02,42.805,6.029,0.025,-0.005,0.005,102.0,102.0,101.0,13.3,1505.2,328.3,-0.8,1.8,2470.979,13.29,0.025,101.3
2022-09-05T03:40:02,42.805,6.029,-0.003,-0.013,-0.044,102.0,101.0,100.0,13.3,1505.2,322.3,-0.8,1.8,2470.988,13.29,0.013,193.0
2022-09-05T03:43:02,42.805,6.029,-0.004,-0.007,-0.03,102.0,100.0,101.0,13.3,1505.2,326.8,-0.8,1.8,2470.99,13.29,0.008,209.7
2022-09-05T03:46:02,42.805,6.029,0.022,-0.014,-0.003,102.0,101.0,101.0,13.4,1505.2,323.2,-0.8,1.8,2470.949,13.29,0.026,122.5
2022-09-05T03:49:03,42.805,6.029,0.02,-0.01,-0.025,100.0,102.0,100.0,13.4,1505.2,321.1,-0.8,1.8,2471.018,13.29,0.022,116.6
2022-09-05T03:52:02,42.805,6.029,0.031,-0.014,-0.029,102.0,100.0,100.0,13.4,1505.2,325.4,-0.7,1.9,2471.012,13.29,0.034,114.3
2022-09-05T03:55:02,42.805,6.029,0.02,0.001,0.011,100.0,102.0,101.0,13.4,1505.2,321.0,-0.8,1.8,2470.996,13.29,0.02,87.1
2022-09-05T03:58:03,42.805,6.029,0.008,0.003,-0.04,101.0,102.0,101.0,13.4,1505.2,327.1,-0.8,1.8,2470.969,13.29,0.008,69.4
2022-09-05T04:04:02,42.805,6.029,0.009,-0.002,-0.034,104.0,101.0,101.0,13.4,1505.2,324.6,-0.8,1.8,2471.022,13.28,0.009,102.5
2022-09-05T04:07:02,42.805,6.029,0.011,-0.038,-0.048,101.0,101.0,101.0,13.4,1505.2,327.0,-0.8,1.9,2470.996,13.28,0.039,163.9
2022-09-05T04:10:03,42.805,6.029,0.013,-0.02,-0.037,102.0,101.0,101.0,13.4,1505.2,320.4,-0.8,1.8,2471.037,13.28,0.023,147.0
2022-09-05T04:13:03,42.805,6.029,0.01,-0.013,-0.019,100.0,101.0,100.0,13.3,1505.2,332.2,-0.8,1.8,2471.01,13.28,0.016,142.4
2022-09-05T04:16:03,42.805,6.029,0.023,-0.014,-0.022,100.0,102.0,100.0,13.4,1505.2,324.5,-0.8,1.8,2471.009,13.29,0.026,121.3
2022-09-05T04:19:02,42.805,6.029,0.006,-0.007,-0.029,101.0,102.0,100.0,13.4,1505.2,325.7,-0.8,1.8,2471.017,13.29,0.009,139.4
2022-09-05T04:22:02,42.805,6.029,0.03,0.011,0.016,102.0,101.0,101.0,13.4,1505.2,330.7,-0.7,1.8,2471.027,13.29,0.031,69.9
2022-09-05T04:25:03,42.805,6.029,0.007,-0.011,-0.016,102.0,102.0,102.0,13.4,1505.2,328.5,-0.7,1.8,2471.013,13.29,0.013,147.5
2022-09-05T04:28:03,42.805,6.029,0.008,-0.045,-0.052,101.0,101.0,101.0,13.4,1505.2,328.2,-0.8,1.8,2470.999,13.29,0.045,169.9
2022-09-05T04:31:03,42.805,6.029,0.024,-0.021,-0.02,101.0,101.0,100.0,13.4,1505.2,323.6,-0.8,1.8,2470.977,13.29,0.031,131.2
2022-09-05T04:34:03,42.805,6.029,0.0,0.001,-0.023,103.0,101.0,100.0,13.4,1505.2,317.9,-0.8,1.8,2470.982,13.29,0.001,0.0
2022-09-05T04:37:02,42.805,6.029,0.03,-0.009,-0.02,102.0,102.0,101.0,13.4,1505.2,323.0,-0.7,1.8,2470.993,13.29,0.031,106.7
2022-09-05T04:40:03,42.805,6.029,0.011,0.0,0.001,104.0,103.0,100.0,13.4,1505.2,334.5,-0.8,1.8,2470.992,13.29,0.011,90.0
2022-09-05T04:43:03,42.805,6.029,0.003,-0.006,-0.016,102.0,102.0,101.0,13.4,1505.2,328.6,-0.7,1.9,2470.986,13.29,0.006,153.4
2022-09-05T04:46:03,42.805,6.029,0.012,-0.022,-0.029,102.0,101.0,100.0,13.4,1505.2,334.5,-0.7,1.8,2470.983,13.29,0.025,151.4
2022-09-05T04:49:03,42.805,6.029,-0.006,-0.006,0.001,100.0,102.0,100.0,13.4,1505.2,325.0,-0.8,1.8,2470.995,13.29,0.008,225.0
2022-09-05T04:52:02,42.805,6.029,0.018,-0.033,-0.021,101.0,102.0,101.0,13.3,1505.2,321.0,-0.7,1.8,2470.997,13.29,0.037,151.4
2022-09-05T04:55:03,42.805,6.029,0.017,-0.021,-0.003,101.0,101.0,100.0,13.3,1505.2,323.8,-0.7,1.8,2471.009,13.29,0.027,141.0
2022-09-05T04:58:03,42.805,6.029,0.019,-0.003,-0.009,103.0,100.0,102.0,13.4,1505.2,327.7,-0.7,1.8,2470.972,13.29,0.019,99.0
2022-09-05T05:04:02,42.805,6.029,0.012,-0.007,-0.045,103.0,101.0,101.0,13.4,1505.2,321.1,-0.8,1.8,2470.982,13.28,0.013,120.3
2022-09-05T05:07:02,42.805,6.029,-0.003,-0.012,-0.042,105.0,101.0,101.0,13.4,1505.2,327.9,-0.8,1.8,2470.99,13.28,0.012,194.0
2022-09-05T05:10:03,42.805,6.029,0.025,-0.02,-0.012,102.0,103.0,101.0,13.4,1505.2,321.1,-0.8,1.8,2471.002,13.28,0.032,128.7
2022-09-05T05:13:03,42.805,6.029,-0.008,-0.009,-0.042,102.0,102.0,100.0,13.4,1505.2,332.8,-0.8,1.8,2470.986,13.28,0.012,221.6
2022-09-05T05:16:03,42.805,6.029,0.021,-0.035,-0.027,101.0,100.0,102.0,13.4,1505.2,324.3,-0.8,1.8,2471.001,13.28,0.04,149.0
2022-09-05T05:19:03,42.805,6.029,-0.015,-0.006,-0.008,103.0,102.0,100.0,13.4,1505.2,322.4,-0.8,1.8,2471.005,13.29,0.016,248.2
2022-09-05T05:22:02,42.805,6.029,-0.018,-0.034,-0.057,102.0,102.0,101.0,13.4,1505.2,332.1,-0.7,1.8,2471.001,13.29,0.038,207.9
2022-09-05T05:25:03,42.805,6.029,0.0,-0.019,-0.031,102.0,102.0,101.0,13.3,1505.2,327.7,-0.8,1.8,2470.984,13.29,0.019,180.0
2022-09-05T05:28:03,42.805,6.029,-0.011,-0.015,-0.028,101.0,101.0,100.0,13.3,1505.2,323.3,-0.7,1.8,2470.978,13.29,0.018,216.3
2022-09-05T05:31:03,42.805,6.029,-0.001,-0.017,-0.021,101.0,102.0,101.0,13.3,1505.2,324.3,-0.8,1.8,2470.991,13.29,0.017,183.4
2022-09-05T05:34:03,42.805,6.029,0.003,-0.019,-0.05,101.0,102.0,100.0,13.4,1505.2,320.7,-0.8,1.8,2470.989,13.29,0.019,171.0
2022-09-05T05:37:02,42.805,6.029,0.005,-0.022,-0.032,104.0,100.0,100.0,13.3,1505.2,332.0,-0.7,1.8,2470.962,13.29,0.022,167.2
2022-09-05T05:40:03,42.805,6.029,0.008,-0.016,-0.053,102.0,102.0,100.0,13.4,1505.2,318.9,-0.8,1.8,2470.965,13.29,0.017,153.4
2022-09-05T05:43:03,42.805,6.029,0.019,-0.018,-0.033,102.0,102.0,100.0,13.4,1505.2,321.1,-0.8,1.9,2470.993,13.29,0.026,133.5
2022-09-05T05:46:03,42.805,6.029,0.025,-0.026,-0.033,102.0,102.0,100.0,13.4,1505.2,326.8,-0.8,1.8,2470.988,13.29,0.036,136.1
2022-09-05T05:49:03,42.805,6.029,-0.004,0.001,0.001,102.0,102.0,101.0,13.3,1505.2,334.5,-0.7,1.8,2470.981,13.29,0.004,284.0
2022-09-05T05:52:02,42.805,6.029,0.018,-0.024,-0.007,101.0,102.0,101.0,13.4,1505.2,333.4,-0.8,1.8,2471.026,13.29,0.03,143.1
2022-09-05T05:55:03,42.805,6.029,0.014,-0.019,-0.026,101.0,104.0,101.0,13.3,1505.2,324.2,-0.7,1.8,2471.007,13.29,0.023,143.6
2022-09-05T05:58:03,42.805,6.029,-0.011,-0.011,-0.063,102.0,101.0,100.0,13.4,1505.2,333.4,-0.8,1.8,2470.948,13.29,0.015,225.0
2022-09-05T06:04:02,42.805,6.029,0.0,0.001,0.009,102.0,102.0,101.0,13.3,1505.2,319.8,-0.8,1.8,2471.014,13.28,0.001,0.0
2022-09-05T06:07:02,42.805,6.029,0.004,-0.008,0.0,101.0,101.0,101.0,13.4,1505.2,322.1,-0.7,1.8,2471.016,13.28,0.008,153.4
2022-09-05T06:10:03,42.805,6.029,0.008,-0.016,-0.025,101.0,101.0,101.0,13.4,1505.2,320.3,-0.7,1.8,2470.954,13.28,0.017,153.4
2022-09-05T06:13:03,42.805,6.029,-0.005,-0.017,-0.055,102.0,101.0,100.0,13.4,1505.2,319.3,-0.8,1.8,2470.995,13.28,0.017,196.4
2022-09-05T06:16:03,42.805,6.029,-0.001,-0.019,-0.012,103.0,101.0,101.0,13.4,1505.2,320.4,-0.7,1.8,2470.982,13.28,0.019,183.0
2022-09-05T06:19:03,42.805,6.029,0.006,-0.019,-0.049,102.0,102.0,101.0,13.4,1505.2,324.5,-0.8,1.8,2470.972,13.29,0.019,162.5
2022-09-05T06:22:02,42.805,6.029,-0.005,-0.008,-0.029,102.0,103.0,100.0,13.3,1505.2,323.9,-0.8,1.8,2470.968,13.29,0.009,212.0
2022-09-05T06:25:03,42.805,6.029,0.03,-0.006,-0.014,103.0,102.0,101.0,13.3,1505.2,328.4,-0.8,1.8,2470.993,13.29,0.03,101.3
2022-09-05T06:28:03,42.805,6.029,0.019,-0.028,-0.041,102.0,102.0,101.0,13.4,1505.2,326.3,-0.7,1.8,2470.951,13.29,0.033,145.8
2022-09-05T06:31:03,42.805,6.029,0.027,-0.025,-0.032,105.0,100.0,102.0,13.4,1505.2,321.7,-0.7,1.8,2470.907,13.29,0.036,132.8
2022-09-05T06:34:03,42.805,6.029,-0.01,-0.002,-0.026,102.0,103.0,100.0,13.3,1505.2,331.9,-0.7,1.8,2470.915,13.29,0.01,258.7
2022-09-05T06:37:02,42.805,6.029,-0.007,-0.017,-0.055,101.0,102.0,101.0,13.4,1505.2,327.5,-0.7,1.8,2470.924,13.29,0.018,202.4
2022-09-05T06:40:03,42.805,6.029,0.014,-0.028,-0.036,102.0,104.0,101.0,13.4,1505.2,333.1,-0.8,1.8,2470.956,13.29,0.031,153.4
2022-09-05T06:43:03,42.805,6.029,0.003,-0.01,-0.023,103.0,102.0,101.0,13.4,1505.2,317.0,-0.7,1.8,2470.936,13.29,0.01,163.3
2022-09-05T06:46:03,42.805,6.029,0.011,-0.01,-0.019,102.0,103.0,101.0,13.3,1505.2,320.6,-0.8,1.8,2470.956,13.29,0.014,132.3
2022-09-05T06:49:03,42.805,6.029,-0.006,-0.006,-0.024,103.0,102.0,101.0,13.4,1505.2,323.3,-0.7,1.8,2470.938,13.29,0.008,225.0
2022-09-05T06:52:02,42.805,6.029,0.0,-0.003,-0.012,101.0,104.0,101.0,13.4,1505.2,329.9,-0.8,1.8,2470.974,13.29,0.003,180.0
2022-09-05T06:55:03,42.805,6.029,0.001,-0.011,-0.019,102.0,102.0,101.0,13.4,1505.2,322.4,-0.8,1.8,2470.967,13.29,0.011,174.8
2022-09-05T06:58:03,42.805,6.029,0.013,-0.029,-0.034,102.0,103.0,101.0,13.4,1505.2,330.4,-0.8,1.8,2470.942,13.29,0.031,155.9
2022-09-05T07:04:02,42.805,6.029,-0.011,0.007,-0.027,102.0,102.0,100.0,13.3,1505.2,333.4,-0.8,1.8,2470.967,13.28,0.013,302.5
2022-09-05T07:07:02,42.805,6.029,0.008,0.003,-0.001,101.0,103.0,101.0,13.4,1505.2,329.2,-0.8,1.8,2470.987,13.28,0.008,69.4
2022-09-05T07:10:03,42.805,6.029,0.003,-0.015,-0.066,102.0,102.0,101.0,13.4,1505.2,331.5,-0.8,1.8,2470.936,13.28,0.015,168.7
2022-09-05T07:13:03,42.805,6.029,-0.011,0.001,-0.022,102.0,102.0,101.0,13.3,1505.2,331.9,-0.8,1.8,2470.933,13.28,0.011,275.2
2022-09-05T07:16:03,42.805,6.029,0.019,-0.018,-0.007,101.0,102.0,101.0,13.4,1505.2,330.2,-0.7,1.8,2470.948,13.29,0.026,133.5
2022-09-05T07:19:03,42.805,6.029,-0.012,0.005,-0.009,102.0,103.0,100.0,13.4,1505.2,324.1,-0.8,1.8,2470.936,13.29,0.013,292.6
2022-09-05T07:22:02,42.805,6.029,-0.004,-0.014,-0.04,102.0,102.0,101.0,13.4,1505.2,334.0,-0.7,1.8,2470.944,13.29,0.014,195.9
2022-09-05T07:25:03,42.805,6.029,-0.004,0.008,-0.038,102.0,102.0,101.0,13.3,1505.2,332.8,-0.7,1.8,2470.958,13.29,0.008,333.4
2022-09-05T07:28:03,42.805,6.029,0.002,-0.022,-0.054,103.0,102.0,101.0,13.4,1505.2,331.9,-0.8,1.8,2470.946,13.29,0.022,174.8
2022-09-05T07:31:03,42.805,6.029,-0.013,-0.01,-0.01,102.0,102.0,101.0,13.3,1505.2,327.3,-0.7,1.8,2470.97,13.29,0.016,232.4
2022-09-05T07:34:03,42.805,6.029,-0.006,0.014,-0.018,101.0,102.0,101.0,13.4,1505.2,328.4,-0.8,1.8,2470.879,13.29,0.015,336.8
2022-09-05T07:37:02,42.805,6.029,-0.003,-0.008,-0.026,102.0,102.0,101.0,13.4,1505.2,326.8,-0.7,1.8,2470.938,13.29,0.008,200.6
2022-09-05T07:40:03,42.805,6.029,0.001,0.012,-0.02,102.0,101.0,102.0,13.4,1505.2,331.3,-0.7,1.8,2470.93,13.29,0.012,4.8
2022-09-05T07:43:03,42.805,6.029,-0.003,0.003,-0.036,101.0,103.0,101.0,13.4,1505.2,323.6,-0.7,1.8,2470.926,13.29,0.004,315.0
2022-09-05T07:46:03,42.805,6.029,0.0,0.0,-0.047,102.0,101.0,102.0,13.4,1505.2,332.5,-0.7,1.8,2470.959,13.29,0.0,0.0
2022-09-05T07:49:03,42.805,6.029,-0.011,0.011,-0.012,102.0,102.0,100.0,13.3,1505.2,328.0,-0.7,1.8,2470.944,13.29,0.015,315.0
2022-09-05T07:52:03,42.805,6.029,0.024,-0.003,0.004,103.0,101.0,101.0,13.4,1505.2,332.0,-0.7,1.9,2470.936,13.29,0.024,97.1
2022-09-05T07:55:03,42.805,6.029,-0.018,0.019,-0.011,101.0,102.0,100.0,13.4,1505.2,324.3,-0.7,1.8,2470.931,13.29,0.026,316.5
2022-09-05T07:58:03,42.805,6.029,-0.014,0.0,-0.03,102.0,101.0,101.0,13.3,1505.2,332.5,-0.7,1.8,2470.937,13.29,0.014,270.0
2022-09-05T08:04:02,42.805,6.029,-0.009,-0.009,-0.036,102.0,101.0,100.0,13.4,1505.2,320.4,-0.7,1.8,2470.935,13.29,0.012,225.0
2022-09-05T08:07:03,42.805,6.029,-0.011,0.004,-0.01,102.0,101.0,101.0,13.4,1505.2,322.1,-0.8,1.8,2470.953,13.29,0.011,290.0
2022-09-05T08:10:03,42.805,6.029,-0.013,0.02,0.012,101.0,100.0,101.0,13.4,1505.2,326.9,-0.8,1.8,2470.932,13.29,0.023,327.0
2022-09-05T08:13:03,42.805,6.029,-0.021,0.024,-0.036,102.0,102.0,101.0,13.4,1505.2,327.4,-0.8,1.8,2470.949,13.29,0.031,318.8
2022-09-05T08:16:03,42.805,6.029,-0.013,0.015,-0.034,102.0,102.0,101.0,13.4,1505.2,326.4,-0.7,1.8,2470.967,13.29,0.019,319.1
2022-09-05T08:19:03,42.805,6.029,0.004,-0.011,-0.034,102.0,100.0,100.0,13.4,1505.2,328.3,-0.7,1.8,2470.906,13.29,0.011,160.0
2022-09-05T08:22:03,42.805,6.029,0.016,-0.005,0.0,102.0,101.0,101.0,13.4,1505.2,322.3,-0.8,1.8,2470.905,13.29,0.016,107.4
2022-09-05T08:25:03,42.805,6.029,-0.007,-0.009,-0.059,101.0,102.0,101.0,13.4,1505.2,321.5,-0.8,1.8,2470.939,13.29,0.011,217.9
2022-09-05T08:28:03,42.805,6.029,-0.007,0.001,-0.022,101.0,101.0,101.0,13.4,1505.2,327.3,-0.8,1.8,2470.914,13.29,0.007,278.1
2022-09-05T08:31:03,42.805,6.029,0.009,0.0,-0.036,102.0,102.0,100.0,13.4,1505.2,317.7,-0.8,1.8,2470.889,13.29,0.009,90.0
2022-09-05T08:34:03,42.805,6.029,-0.008,0.016,-0.004,101.0,102.0,101.0,13.3,1505.2,323.9,-0.8,1.8,2470.943,13.29,0.017,333.4
2022-09-05T08:37:03,42.805,6.029,0.011,0.001,-0.027,102.0,102.0,100.0,13.4,1505.2,318.6,-0.8,1.8,2470.912,13.29,0.011,84.8
2022-09-05T08:40:03,42.805,6.029,-0.007,0.01,-0.02,102.0,101.0,101.0,13.4,1505.2,326.4,-0.7,1.8,2470.927,13.29,0.012,325.0
2022-09-05T08:43:03,42.805,6.029,-0.011,0.008,0.006,101.0,101.0,100.0,13.4,1505.2,326.1,-0.8,1.8,2470.966,13.29,0.013,306.0
2022-09-05T08:46:03,42.805,6.029,-0.002,-0.003,-0.029,103.0,101.0,100.0,13.4,1505.2,324.3,-0.8,1.8,2470.908,13.29,0.003,213.7
2022-09-05T08:49:03,42.805,6.029,-0.011,-0.005,-0.034,102.0,100.0,101.0,13.4,1505.2,318.8,-0.8,1.8,2470.908,13.29,0.012,245.6
2022-09-05T08:52:03,42.805,6.029,-0.011,0.008,0.009,101.0,101.0,100.0,13.4,1505.2,321.6,-0.8,1.8,2470.926,13.29,0.013,306.0
2022-09-05T08:55:03,42.805,6.029,-0.01,-0.002,-0.018,101.0,101.0,102.0,13.3,1505.2,326.6,-0.7,1.8,2470.945,13.29,0.01,258.7
2022-09-05T08:58:03,42.805,6.029,-0.006,0.015,-0.008,102.0,104.0,100.0,13.3,1505.2,324.4,-0.8,1.8,2470.926,13.29,0.016,338.2
2022-09-05T09:04:02,42.805,6.029,0.007,-0.006,-0.026,101.0,100.0,100.0,13.4,1505.2,327.4,-0.7,1.8,2470.947,13.29,0.009,130.6
2022-09-05T09:07:03,42.805,6.029,-0.008,-0.002,-0.042,101.0,101.0,101.0,13.3,1505.2,319.9,-0.8,1.8,2471.024,13.29,0.008,256.0
2022-09-05T09:10:03,42.805,6.029,0.01,0.01,-0.003,101.0,100.0,100.0,13.3,1505.2,318.5,-0.7,1.8,2470.99,13.29,0.014,45.0
2022-09-05T09:13:03,42.805,6.029,0.004,-0.009,-0.024,101.0,103.0,99.0,13.4,1505.2,323.0,-0.8,1.8,2470.97,13.29,0.009,156.0
2022-09-05T09:16:03,42.805,6.029,0.003,0.004,-0.024,101.0,101.0,100.0,13.3,1505.2,333.4,-0.7,1.8,2470.945,13.29,0.005,36.9
2022-09-05T09:19:03,42.805,6.029,-0.005,-0.001,-0.033,101.0,101.0,100.0,13.3,1505.2,331.5,-0.8,1.8,2470.957,13.29,0.005,258.7
2022-09-05T09:22:03,42.805,6.029,-0.02,0.006,-0.044,101.0,102.0,102.0,13.4,1505.2,329.1,-0.8,1.8,2470.913,13.3,0.02,286.7
2022-09-05T09:25:03,42.805,6.029,0.01,0.0,0.007,101.0,101.0,101.0,13.4,1505.2,325.3,-0.8,1.8,2470.953,13.29,0.01,90.0
2022-09-05T09:28:03,42.805,6.029,0.0,0.003,-0.036,102.0,102.0,103.0,13.4,1505.2,321.0,-0.8,1.8,2470.949,13.29,0.003,0.0
2022-09-05T09:31:03,42.805,6.029,-0.009,-0.025,-0.053,102.0,101.0,101.0,13.4,1505.2,332.3,-0.8,1.8,2470.958,13.29,0.026,199.8
2022-09-05T09:34:03,42.805,6.029,0.015,0.002,-0.006,104.0,102.0,103.0,13.4,1505.2,322.3,-0.8,1.8,2470.949,13.29,0.015,82.4
2022-09-05T09:37:03,42.805,6.029,-0.015,0.002,-0.017,103.0,102.0,105.0,13.4,1505.2,319.5,-0.8,1.8,2470.953,13.29,0.015,277.6
2022-09-05T09:40:03,42.805,6.029,-0.004,-0.006,-0.03,100.0,104.0,102.0,13.4,1505.2,325.8,-0.8,1.8,2470.968,13.29,0.007,213.7
2022-09-05T09:43:03,42.805,6.029,0.008,0.0,-0.023,101.0,102.0,99.0,13.3,1505.2,331.0,-0.8,1.8,2470.972,13.29,0.008,90.0
2022-09-05T09:46:03,42.805,6.029,0.002,0.001,-0.034,101.0,101.0,101.0,13.4,1505.2,325.4,-0.8,1.8,2470.921,13.29,0.002,63.4
2022-09-05T09:49:03,42.805,6.029,-0.004,0.003,-0.02,100.0,101.0,101.0,13.4,1505.2,333.1,-0.8,1.8,2470.956,13.29,0.005,306.9
2022-09-05T09:52:03,42.805,6.029,0.006,0.0,-0.026,101.0,102.0,101.0,13.3,1505.2,328.8,-0.8,1.8,2470.887,13.29,0.006,90.0
2022-09-05T09:55:03,42.805,6.029,0.002,0.006,-0.024,101.0,101.0,101.0,13.4,1505.2,319.6,-0.7,1.8,2470.93,13.29,0.006,18.4